Theta_e
352 350 352 349 351 352 353 352 350 350 347 347 349 349 353 352 351 353 352 347 347 346 343 342 341 340 338 333 328 324 321 320 319 318 319 320 324 332
351 352 352 350 351 352 350 350 352 352 352 348 349 352 350 353 352 352 350 348 347 345 342 342 341 338 334 329 326 322 320 319 321 324 326 327 328 332
349 352 353 350 348 351 350 347 350 348 351 350 352 352 352 353 352 351 346 347 346 342 342 341 338 335 331 327 323 321 320 322 324 325 320 318 326 328
352 350 351 349 352 352 352 352 349 348 349 350 350 349 352 354 352 347 347 346 343 342 341 339 336 331 328 324 322 320 323 324 321 315 314 315 314 313
352 352 352 351 350 348 351 352 352 349 348 348 350 349 349 352 347 345 345 342 340 341 339 336 332 329 326 323 322 324 325 324 318 315 311 306 305 307
352 352 352 352 352 352 351 349 350 350 351 350 348 350 352 352 349 345 341 339 338 333 332 327 326 326 326 323 324 325 322 319 316 307 304 304 305 305
350 351 351 351 350 350 351 351 351 349 350 350 350 351 352 351 349 346 342 338 335 331 329 324 322 321 322 322 322 320 318 314 307 306 308 309 308 306
346 347 349 350 349 347 348 348 350 351 351 350 348 349 350 352 352 346 341 334 332 331 328 327 324 322 320 319 320 317 315 309 308 311 311 310 308 307
345 344 343 344 347 349 350 348 348 348 348 351 351 350 350 351 352 348 344 340 340 335 328 327 323 320 319 319 316 315 311 309 310 311 310 309 310 309
340 346 346 345 347 349 352 351 351 351 349 349 350 351 352 351 348 349 348 344 341 335 331 328 323 319 316 315 314 313 310 310 312 312 311 311 311 311
328 334 341 345 346 346 349 350 350 353 350 348 347 350 350 350 349 350 349 339 334 330 331 327 322 318 315 313 311 312 311 312 312 313 313 313 313 312
321 324 326 329 339 344 347 349 351 351 350 351 345 346 346 347 347 347 345 340 334 331 331 327 320 317 315 313 313 313 312 310 313 314 314 314 314 315
319 321 324 326 329 334 338 345 349 351 351 348 347 342 340 340 342 342 342 341 336 333 331 330 320 319 317 314 314 314 313 314 314 315 315 314 313 314
315 317 320 322 326 331 339 342 343 345 345 343 340 334 337 337 335 338 339 338 335 332 331 329 321 321 316 315 314 314 315 315 315 316 314 313 313 312
314 315 316 319 322 324 329 340 345 344 341 340 332 332 335 335 333 330 327 325 324 322 322 323 322 323 319 318 316 315 314 316 316 316 315 316 315 314
320 318 318 318 320 324 328 334 342 340 339 334 328 325 321 319 320 321 321 319 319 318 321 324 324 323 323 321 318 316 318 315 314 314 312 312 311 312
319 319 322 323 322 325 327 332 335 334 333 327 322 319 318 318 317 317 316 315 314 314 314 314 315 318 320 321 319 317 313 313 312 310 311 310 308 307
323 326 328 327 328 328 331 330 329 328 324 321 319 317 316 316 316 315 315 314 314 314 315 315 315 315 316 315 316 314 313 312 311 310 309 309 308 307
320 320 322 323 325 326 326 326 323 321 320 318 318 316 316 315 314 314 313 313 313 312 312 313 315 315 316 316 312 313 313 311 310 310 309 309 308 308
317 318 318 319 320 320 320 319 319 319 318 318 316 316 316 315 315 315 315 313 313 312 313 315 315 315 314 314 314 310 311 311 310 310 309 308 307 304
317 316 316 317 317 317 317 318 317 317 318 317 317 317 316 315 316 317 315 315 316 315 316 316 315 314 315 313 313 312 309 309 311 310 310 308 307 306
318 317 316 315 316 316 318 318 317 316 316 317 317 316 316 316 317 318 317 316 316 316 316 314 313 314 314 313 313 313 312 309 306 306 305 305 305 306
320 319 321 318 318 317 316 316 316 315 315 316 317 317 317 317 317 315 315 315 315 316 315 313 313 313 312 312 310 310 310 308 307 306 306 302 301 301
Wind_Speed
14 13 12 12 10 10 10 11 11 8 7 7 5 3 4 6 6 4 4 5 6 6 5 4 3 3 3 3 4 4 5 5 5 6 6 7 8 10
15 14 14 13 12 11 13 13 12 13 8 7 7 5 7 6 7 6 5 7 7 6 6 5 3 4 5 5 4 4 4 5 5 5 5 5 7 11
17 17 18 17 14 14 14 15 15 16 13 14 10 8 8 7 6 6 6 7 9 8 7 5 5 5 5 5 5 5 5 4 4 5 6 9 12 12
16 17 18 17 16 15 15 14 16 15 14 17 15 14 10 7 7 9 6 8 8 10 8 7 7 7 7 7 7 6 5 5 6 8 9 8 8 10
18 18 18 19 18 19 17 16 15 17 17 16 17 14 10 7 7 10 9 10 10 12 12 10 9 9 9 8 8 7 7 8 8 9 11 12 13 14
19 19 19 20 20 20 18 19 19 17 15 15 17 15 11 10 9 13 11 12 11 10 13 12 12 10 9 9 8 8 9 9 11 13 15 15 14 14
18 20 21 22 24 24 21 19 19 19 19 18 17 15 15 9 13 15 16 17 13 14 15 12 12 11 12 11 11 11 11 12 14 15 12 12 12 12
22 23 23 23 25 28 28 26 24 22 22 21 20 19 20 18 14 17 18 12 6 16 20 13 13 13 12 13 13 14 14 15 15 13 12 13 13 12
24 23 23 24 24 24 24 28 27 27 29 25 23 24 22 20 19 16 22 18 13 17 22 14 14 13 15 16 15 15 16 16 15 15 14 13 11 10
27 26 28 27 26 25 24 23 22 22 25 28 29 28 24 23 23 22 19 19 14 20 25 9 18 14 17 18 17 17 17 16 15 15 12 10 9 8
24 26 26 28 31 31 29 27 25 23 19 22 25 26 29 30 26 15 19 22 6 15 27 13 20 18 14 16 15 18 17 16 14 11 9 7 5 4
22 25 28 31 31 30 29 28 26 25 20 16 16 24 26 27 22 19 20 22 11 6 20 13 27 19 7 12 14 17 15 14 13 9 6 4 2 1
22 23 24 23 25 28 32 28 27 23 17 15 12 12 11 12 14 18 19 25 19 11 27 26 24 17 10 12 18 17 13 12 10 8 5 3 1 1
27 24 24 24 23 21 22 29 28 27 19 13 14 14 14 9 9 10 16 21 22 21 30 41 27 30 22 15 11 21 17 13 13 8 6 3 1 3
26 26 27 26 23 21 27 20 21 21 21 20 17 21 18 20 21 16 10 11 9 11 15 14 39 35 34 20 17 22 20 16 13 9 7 5 2 1
18 18 22 25 22 19 18 22 22 21 23 20 19 18 20 21 20 21 25 25 26 23 24 26 28 27 24 23 23 22 13 9 13 10 7 4 2 2
10 12 14 15 15 16 15 15 19 23 23 22 25 24 23 23 23 23 23 21 24 22 21 24 21 16 15 17 17 18 17 15 12 10 7 5 3 2
6 7 6 9 10 10 15 16 24 24 26 28 28 26 26 25 25 25 25 25 26 24 27 24 24 27 22 19 16 18 13 12 10 8 6 3 3 2
21 19 17 14 12 15 19 23 22 22 28 29 28 27 28 27 26 24 24 21 18 16 21 23 19 18 15 8 7 11 12 11 9 6 5 3 2 2
24 23 21 20 20 19 19 24 26 27 28 29 31 28 27 26 21 18 15 12 16 18 14 12 13 12 12 11 10 8 11 10 8 6 5 3 2 3
22 24 25 26 24 26 27 25 25 27 29 31 28 26 25 23 18 15 14 15 18 16 15 14 9 10 13 13 12 12 8 9 7 4 4 3 3 5
18 20 24 24 25 25 27 29 29 28 27 25 24 27 27 22 19 15 14 15 13 13 12 11 13 11 8 5 8 10 9 6 4 4 5 3 3 4
20 20 20 21 25 26 28 24 25 27 25 22 22 20 17 16 14 13 13 10 11 13 14 14 11 8 7 6 6 8 8 7 5 4 4 5 2 3
Wind_Direction
254 263 259 263 261 258 252 252 264 278 279 281 281 298 259 267 259 237 231 241 223 214 206 187 174 163 160 141 112 92 83 86 88 86 81 75 74 75
256 250 254 259 257 258 252 253 249 256 275 268 270 291 293 273 264 229 230 249 211 211 192 187 190 171 154 141 123 109 101 91 83 75 67 65 73 81
263 253 250 251 260 259 259 261 257 257 250 262 272 282 285 258 237 223 239 228 202 193 195 190 182 172 155 146 137 127 116 99 82 77 82 89 100 102
262 264 257 262 253 254 255 254 254 247 256 269 273 275 281 266 241 242 199 207 185 186 188 188 182 172 165 158 148 136 119 104 98 96 92 91 93 94
260 258 254 255 253 256 249 257 253 254 254 260 272 269 265 240 235 232 221 193 183 183 185 190 184 182 172 159 149 140 134 125 114 106 100 97 98 99
261 259 255 252 250 256 256 257 260 262 260 254 264 266 256 239 227 221 203 197 186 169 175 175 179 178 170 157 155 145 137 128 119 116 112 109 107 105
260 259 257 253 250 252 258 255 254 258 260 256 259 254 250 215 216 221 205 198 184 189 179 169 165 162 162 162 155 148 141 134 129 125 118 111 106 102
262 260 259 260 260 261 258 256 251 247 248 246 252 249 253 244 232 210 185 163 186 208 178 174 183 172 165 157 163 153 147 141 138 127 119 114 112 111
258 259 257 258 258 256 260 259 256 255 251 247 249 248 249 242 232 211 206 202 202 193 180 172 177 169 167 164 161 156 151 147 140 130 126 120 111 109
258 256 255 257 255 252 255 252 250 247 246 244 243 250 251 245 243 237 225 211 188 191 175 156 175 166 165 160 162 158 153 149 149 139 132 126 118 110
265 259 256 257 257 255 249 251 254 247 243 253 255 250 252 248 246 224 196 174 160 181 186 158 166 148 153 154 161 155 158 160 160 150 141 130 119 124
277 268 262 254 253 253 249 241 244 244 241 249 261 253 251 250 247 238 216 193 160 140 194 156 156 144 126 154 163 163 171 182 168 168 158 144 120 150
281 275 265 263 258 250 245 245 244 253 249 237 233 233 243 244 221 217 221 202 190 198 192 182 162 146 112 140 166 178 183 183 187 191 193 201 188 264
274 270 265 257 254 245 241 244 248 250 236 221 205 186 184 189 206 213 202 218 212 232 208 188 158 150 136 148 166 184 188 193 198 196 187 200 221 256
281 267 264 260 266 257 241 243 244 240 216 200 178 177 180 184 189 190 200 187 172 156 162 165 153 159 152 160 159 175 179 192 190 177 160 150 141 311
303 277 267 264 257 247 249 238 236 213 202 182 168 164 159 152 142 144 140 135 127 109 112 128 140 140 141 166 170 170 172 149 167 157 148 136 118 82
302 284 278 260 235 233 228 230 183 176 173 168 149 140 133 129 126 132 124 116 113 114 115 117 128 130 136 150 143 150 143 148 151 148 149 141 121 130
24 334 271 232 198 175 153 145 144 156 152 147 138 133 127 126 129 126 123 123 126 129 130 139 141 128 123 106 123 140 142 140 137 140 134 171 179 187
50 44 49 71 96 134 135 135 127 135 138 132 128 129 127 128 130 130 131 133 138 146 145 146 152 128 131 120 114 132 137 139 139 138 158 191 234 249
50 50 49 61 80 88 99 109 115 120 122 123 124 127 131 134 137 140 140 143 141 143 137 129 136 142 143 141 139 133 140 148 165 174 181 193 235 258
51 58 68 74 73 87 94 97 108 115 121 123 127 132 140 143 145 152 145 142 147 150 143 134 123 130 122 120 122 139 143 162 171 200 200 240 289 298
52 63 71 74 91 100 112 121 120 120 122 125 133 144 147 146 146 153 158 159 152 150 140 125 124 129 137 142 130 148 159 158 171 188 198 214 298 315
60 63 71 86 103 108 113 112 118 123 123 130 138 143 150 153 151 154 160 157 146 143 147 140 137 137 128 125 140 146 149 166 169 189 200 201 280 305